Wind_Speed
6 4 3 4 4 4 4 4 2 3 2 5 6 5 6 5 6 8 8 8 7 7 6 10 12 8 6 6 9 6 4 5 3 1 2 7 21 27 23 24 25 23 23 22 21 23 24 24 23 22 21 19 20 18 17 17 17 16 15 15 14 13 11 10 9 10 11 10 10 10 12 12 12 12 12 13 13 13 12 12 11 11 10 10 10 10 9 9 9 8 7 7 7 8 9 9 10
4 4 4 4 5 5 1 2 2 3 3 6 6 6 6 5 6 8 9 7 7 8 9 11 11 7 5 7 8 5 7 7 7 5 6 17 25 22 24 25 25 24 22 22 22 21 21 23 23 23 22 20 20 18 17 16 16 16 15 14 13 12 11 10 9 10 10 10 11 10 12 12 12 12 12 13 13 13 12 12 11 10 10 9 9 9 9 8 7 7 6 6 6 8 9 9 9
4 3 4 4 5 5 2 3 1 2 4 6 7 6 5 6 8 8 7 7 10 11 11 11 9 5 6 9 5 3 6 6 8 9 10 22 23 20 25 25 25 23 21 22 22 20 20 23 23 23 22 21 19 17 16 16 16 15 14 14 13 12 11 10 9 9 10 10 10 10 11 12 12 12 13 13 13 12 12 12 11 11 10 9 9 9 8 7 7 7 6 5 5 6 7 7 8
3 4 4 4 4 4 4 3 0 2 5 6 6 6 6 8 9 8 7 10 11 11 11 10 7 3 2 8 4 4 7 5 8 10 11 19 20 23 27 26 25 22 21 22 21 19 20 23 23 22 21 20 18 17 16 15 15 14 14 13 13 12 11 10 8 9 9 10 10 10 10 11 10 11 12 13 13 13 12 12 11 11 10 10 9 9 9 8 8 8 7 6 5 4 5 5 6
3 4 4 5 3 1 3 1 2 3 6 5 6 7 7 9 9 10 10 11 10 10 11 8 6 4 4 6 3 3 7 6 8 10 14 18 20 26 27 26 25 21 21 21 20 19 20 23 22 20 20 19 17 16 16 15 14 14 14 13 13 12 11 10 8 9 9 10 10 10 10 10 9 10 12 12 12 12 12 11 11 11 11 10 9 9 9 9 8 8 7 6 6 4 4 4 4
4 4 4 5 3 2 3 1 4 6 6 5 6 7 8 9 9 12 11 11 8 8 10 7 6 7 6 6 5 5 5 6 8 11 16 19 22 25 27 26 23 22 22 21 21 19 20 22 21 20 18 18 16 15 15 14 14 14 14 13 13 12 11 9 9 9 9 9 9 10 10 10 9 10 11 12 11 11 11 11 11 11 10 10 10 9 9 8 8 8 7 6 6 5 4 4 4
4 3 3 4 2 2 2 4 5 7 5 6 7 8 8 9 9 12 12 10 8 7 8 6 7 7 5 4 5 7 5 5 7 12 16 19 23 25 26 24 22 23 21 21 21 18 20 21 21 19 17 17 15 15 14 14 14 14 14 13 13 12 11 10 9 9 9 9 9 10 10 10 10 10 10 11 10 9 9 9 9 9 8 9 9 8 8 8 8 8 7 7 6 5 4 4 4
4 3 2 3 2 2 1 6 5 6 6 5 7 7 8 9 8 10 10 9 7 7 8 7 7 4 4 2 3 5 5 4 7 14 17 20 24 25 25 22 22 23 21 20 19 18 19 20 20 20 18 16 15 15 14 14 14 14 14 13 12 11 11 10 9 9 9 9 9 9 10 9 9 9 9 9 9 8 8 7 6 6 6 6 6 7 7 7 7 7 7 7 6 6 5 5 5
4 3 2 3 1 2 3 6 6 6 7 6 7 7 7 7 7 8 8 8 7 7 8 8 7 3 5 4 4 5 5 5 10 16 18 22 25 24 23 21 22 23 22 19 18 18 19 20 20 19 18 16 15 14 14 14 14 14 13 12 12 11 11 10 9 9 9 9 8 9 9 9 9 9 8 8 7 6 5 5 5 5 4 5 5 5 6 6 6 7 6 7 7 6 5 5 5
4 2 2 3 1 3 4 5 6 6 7 6 7 7 7 5 6 7 7 8 7 7 8 8 7 5 6 6 5 5 6 9 13 17 20 24 25 23 21 21 22 23 22 19 19 19 19 19 18 18 16 15 14 14 14 13 13 13 12 12 11 11 10 10 9 8 8 8 7 8 8 8 8 8 7 5 4 4 3 3 4 5 5 6 6 6 6 7 7 7 6 6 6 6 5 5 5
3 2 2 3 1 2 4 5 6 6 7 6 6 6 5 5 6 7 6 8 7 7 8 7 7 7 6 5 4 4 8 12 16 19 22 24 24 22 21 21 21 22 22 20 19 19 19 18 17 16 15 15 14 14 14 13 13 12 11 11 11 10 10 9 8 8 7 6 6 7 8 8 7 6 5 4 2 2 2 3 4 5 6 6 6 7 7 8 8 8 7 6 6 6 5 5 5
3 1 3 2 1 3 4 5 6 7 7 6 7 5 3 5 5 6 6 7 7 6 8 7 5 6 6 4 4 6 10 13 16 20 23 24 24 22 20 20 21 22 21 20 20 19 18 18 16 16 15 14 14 14 14 14 14 12 11 11 10 10 9 9 8 7 6 5 6 6 7 7 6 5 4 3 1 1 2 3 4 5 5 6 7 8 8 8 8 8 8 7 6 5 5 5 5
3 2 4 1 2 2 4 4 5 6 6 5 6 5 3 4 4 5 5 6 6 5 8 7 4 5 4 4 5 7 10 13 17 21 23 23 23 21 20 19 21 21 20 20 20 19 19 17 17 16 16 15 14 13 13 14 14 13 11 10 10 9 8 8 7 6 5 4 5 5 5 5 4 4 3 2 1 1 2 3 5 6 5 6 7 8 8 8 8 8 8 8 7 5 5 6 6
3 2 4 1 1 1 2 3 5 4 5 6 5 5 3 3 3 3 3 5 6 3 6 6 5 5 4 5 5 6 9 15 20 22 24 22 21 21 20 19 20 21 21 21 20 20 19 18 17 17 16 15 14 13 12 12 13 12 11 10 9 8 8 7 6 5 4 4 3 3 3 3 3 2 1 1 2 2 3 4 6 7 6 7 7 8 8 8 8 8 7 8 8 6 5 6 6
3 2 3 0 2 2 1 1 2 2 4 7 5 5 4 2 2 2 2 2 6 5 5 6 5 3 3 4 4 8 13 18 22 23 23 22 21 21 20 19 20 20 21 21 20 20 19 18 17 17 17 16 16 14 13 12 11 11 10 10 8 7 7 6 5 4 4 3 3 2 2 3 2 0 1 2 4 4 4 4 6 7 6 7 7 8 8 7 8 8 8 8 7 6 4 5 6
3 3 3 1 1 1 2 1 1 2 5 7 5 5 5 4 2 2 1 0 5 6 5 5 5 1 1 1 3 12 17 21 24 24 24 22 22 21 20 19 19 20 20 20 20 19 19 18 17 16 16 17 16 15 13 12 11 11 10 9 8 8 7 7 6 4 3 2 1 1 2 3 2 1 2 2 5 5 4 4 5 6 7 7 7 8 8 8 9 9 9 8 7 6 4 4 6
3 4 3 2 2 1 1 1 1 1 4 6 6 5 5 4 3 2 2 3 5 7 5 3 4 2 2 2 7 16 19 22 25 25 24 23 22 21 20 19 19 19 19 20 19 19 19 18 18 16 16 17 16 14 13 12 11 11 10 8 8 8 8 7 6 5 4 2 1 1 1 2 2 2 1 1 4 4 6 8 6 6 7 7 9 9 9 9 10 10 9 8 7 5 4 4 6
4 3 2 0 2 3 1 1 2 1 2 5 5 4 4 4 5 4 5 6 6 7 6 4 5 2 3 6 11 17 21 24 26 26 25 23 22 21 20 20 20 19 19 19 18 19 20 19 18 17 17 17 15 14 13 13 11 10 10 9 8 8 8 7 6 5 5 4 3 3 2 3 3 2 2 2 3 4 6 8 7 6 7 8 9 9 9 9 9 10 9 8 6 5 5 5 5
3 3 1 3 4 4 2 2 3 1 2 4 3 4 4 3 5 5 5 7 8 7 7 7 7 6 6 10 14 18 21 24 26 26 25 24 22 21 21 19 20 20 19 19 18 18 19 19 18 17 17 17 16 14 12 12 11 10 10 9 9 8 8 8 7 7 7 6 5 5 4 3 3 2 3 4 5 5 6 8 8 8 8 9 9 9 10 9 9 10 10 8 6 5 5 3 3
3 3 2 5 4 3 4 3 3 2 2 1 3 2 3 3 4 5 5 6 8 6 6 8 8 9 9 12 15 18 21 24 26 25 24 24 22 21 20 19 19 19 18 18 17 17 17 17 18 17 17 17 16 14 12 12 11 10 11 10 9 9 9 8 7 7 7 7 6 6 5 4 3 3 3 4 4 4 6 7 8 8 8 9 9 8 9 10 10 10 10 9 6 4 2 2 4
3 4 4 6 2 1 5 5 3 2 1 1 2 2 3 3 4 5 5 5 6 5 5 6 8 11 12 13 15 18 21 23 25 24 23 23 21 21 20 19 18 18 18 17 17 17 17 16 17 17 17 17 17 15 13 12 11 11 11 10 10 9 9 8 8 8 7 7 7 6 5 4 4 4 4 4 4 5 5 5 6 6 6 7 8 8 6 8 8 7 7 7 4 2 2 2 4
2 3 4 4 2 2 4 4 3 2 1 2 3 2 1 2 4 5 5 6 2 1 3 4 7 12 14 15 16 18 20 22 24 23 23 23 21 20 19 18 17 17 17 17 18 18 18 17 17 17 17 17 17 15 14 12 12 12 11 11 10 9 9 9 8 8 8 8 7 6 5 5 5 4 4 4 4 5 5 5 5 5 6 6 7 6 6 7 7 6 5 5 4 3 2 3 4
2 4 4 3 2 3 2 4 3 2 1 1 1 1 2 2 4 4 6 7 2 4 2 4 9 13 14 16 16 17 19 20 22 23 23 22 21 20 19 18 17 17 17 17 18 18 18 18 17 17 17 17 17 15 13 13 13 12 11 11 10 9 9 9 8 8 7 7 7 6 6 6 5 5 4 4 4 4 5 5 5 6 7 6 5 6 6 6 6 6 5 5 4 3 2 3 3
3 4 4 3 1 2 2 4 4 3 2 1 0 2 4 4 3 2 5 7 1 2 2 6 10 14 15 16 16 17 18 20 22 22 22 22 21 20 18 17 17 16 16 16 17 17 18 19 18 17 16 16 16 15 14 13 13 12 11 10 10 10 9 9 8 8 7 7 7 7 7 6 6 5 5 5 4 4 4 5 6 6 6 6 6 6 6 6 6 5 5 5 4 3 3 2 4
3 5 4 2 1 0 2 3 3 3 2 1 3 3 3 4 4 4 6 5 2 3 4 8 11 14 14 14 15 16 17 20 22 22 21 21 20 20 18 17 17 16 17 17 16 16 17 18 18 18 17 16 15 15 14 12 12 12 11 11 10 10 10 9 8 8 7 7 7 7 7 6 6 6 5 5 5 5 5 5 6 7 7 6 6 5 5 5 5 5 5 4 3 3 2 2 4
5 5 2 0 1 1 2 4 4 3 3 3 4 3 3 4 5 6 6 4 3 5 6 10 12 14 13 13 14 15 16 19 22 22 21 20 20 21 19 18 18 17 17 17 17 16 16 18 18 18 17 16 15 15 14 13 12 12 12 11 10 10 10 9 8 8 7 7 7 7 7 6 7 6 6 6 6 5 5 5 6 7 7 7 6 5 5 5 5 5 4 4 3 3 2 3 4
5 3 1 2 2 2 3 4 5 4 3 4 4 4 4 4 5 5 5 5 5 7 8 10 12 13 13 12 13 14 16 19 21 21 21 20 20 21 21 19 18 18 18 18 17 16 16 17 18 18 17 16 15 14 14 13 12 12 11 11 10 10 9 8 8 8 8 8 7 7 7 7 7 6 6 6 6 5 5 6 6 7 7 7 6 5 5 5 5 5 5 5 4 4 3 3 3
4 3 2 3 3 3 4 5 5 5 4 4 4 5 5 5 6 5 4 6 7 7 9 11 11 11 12 11 12 13 15 19 20 20 21 21 20 21 21 20 19 19 18 19 18 17 17 18 17 17 17 16 15 14 13 13 12 11 11 10 10 9 9 9 9 9 8 8 7 7 7 7 7 7 7 6 6 5 5 6 6 6 7 6 6 5 5 6 6 6 6 5 5 4 3 3 3
3 3 5 3 4 3 4 5 4 5 4 3 3 6 8 10 9 7 6 7 7 8 9 11 11 10 11 11 11 11 14 18 19 19 20 21 20 20 21 20 19 19 18 18 18 18 17 17 17 17 17 16 16 14 13 12 12 11 11 11 10 9 9 9 9 9 9 8 8 7 7 7 7 7 7 7 6 6 5 6 6 6 6 5 5 6 6 6 6 6 5 5 5 4 4 3 3
2 2 5 3 3 3 3 4 5 5 3 4 4 5 3 6 8 8 8 9 9 9 9 10 11 10 10 11 10 11 14 16 18 18 19 20 19 19 20 20 20 18 17 17 18 19 17 17 17 17 17 17 16 15 13 13 12 12 11 11 11 10 10 9 10 9 9 8 8 8 7 8 8 8 7 7 6 6 6 6 6 6 6 5 6 6 6 6 6 5 5 5 5 5 5 3 3
4 3 4 2 1 4 5 4 5 5 4 5 5 4 3 3 7 9 8 10 10 9 10 10 10 10 10 11 11 11 13 16 18 20 19 19 19 18 19 20 20 19 17 17 18 19 18 17 16 16 17 18 17 16 15 14 13 12 12 11 11 10 10 10 10 9 9 9 8 8 8 8 8 7 7 7 6 6 6 7 6 6 5 5 6 6 6 6 6 6 5 5 6 6 5 3 4
3 3 2 2 3 3 6 4 5 3 3 7 6 3 4 3 5 8 8 10 11 9 9 10 10 11 11 11 12 11 13 16 19 20 19 19 19 18 18 19 20 20 18 17 18 19 19 18 17 17 17 18 18 17 16 15 14 13 12 11 11 10 10 10 9 9 9 8 8 8 8 8 8 7 7 7 7 7 7 6 6 6 6 5 6 6 6 6 6 6 5 6 6 5 5 4 4
1 3 3 3 5 3 3 4 5 3 2 8 8 5 4 2 4 8 9 10 11 10 9 11 11 11 11 10 11 11 12 15 17 19 20 20 19 18 18 19 20 20 19 18 17 19 19 19 18 17 17 18 18 17 16 15 14 13 12 11 11 10 10 10 9 9 9 9 9 9 8 8 8 8 8 8 8 8 7 7 6 6 6 6 6 6 7 6 6 6 5 5 5 5 6 5 4
2 3 4 3 5 6 2 2 4 5 4 6 8 7 7 3 4 7 9 11 11 10 10 11 11 11 10 10 11 11 12 13 15 18 21 20 19 19 17 17 19 19 19 18 18 18 18 18 18 17 16 16 17 17 17 16 14 13 12 11 11 11 10 10 10 9 9 9 9 9 9 8 8 8 9 9 9 8 8 7 7 6 7 7 7 6 7 7 6 6 5 5 5 6 6 6 4
5 5 5 5 5 6 4 3 1 4 6 6 7 8 9 7 5 7 9 11 11 11 10 11 11 11 11 10 11 11 12 13 14 18 21 21 20 19 17 17 18 18 18 18 18 17 17 17 17 16 16 16 16 16 16 15 14 13 12 11 11 11 11 11 10 10 10 10 10 10 9 9 9 9 9 9 9 9 8 8 8 7 7 7 7 7 7 7 6 6 6 5 5 6 6 6 5
8 8 7 6 7 5 5 5 2 2 5 6 7 7 8 7 5 8 10 11 11 11 10 9 10 11 11 11 10 11 12 13 15 18 20 21 20 19 18 17 18 18 18 18 18 18 17 17 16 16 17 16 16 16 16 15 14 13 13 12 12 12 12 11 11 11 11 11 11 10 9 9 9 9 9 9 10 9 8 8 8 8 8 7 7 7 7 6 5 5 6 5 6 7 8 8 6
9 9 7 7 7 5 6 4 2 1 5 5 6 8 9 9 6 7 10 11 12 12 12 11 11 11 11 12 11 12 12 12 14 18 19 21 21 20 19 18 18 18 18 18 19 19 18 18 17 16 17 17 16 17 17 16 15 14 13 13 13 12 12 12 12 12 12 11 11 10 10 10 9 9 9 9 10 9 9 9 8 8 8 8 7 7 6 6 5 5 6 6 7 8 8 9 7
9 9 7 7 5 6 7 3 3 3 5 5 5 8 10 9 8 7 10 13 13 14 14 14 14 13 11 12 13 12 11 11 13 16 19 21 21 21 20 18 19 19 19 19 19 19 19 18 18 17 16 17 17 17 17 16 15 14 13 13 13 12 12 13 12 12 12 11 11 11 10 10 10 10 9 9 10 10 9 9 9 9 8 8 7 7 7 6 6 6 6 6 8 9 8 8 6
9 8 7 6 5 6 4 3 4 4 3 5 6 9 10 9 9 8 11 13 13 14 15 14 15 14 13 13 13 12 12 11 13 15 18 20 21 21 20 19 19 19 19 20 20 20 19 19 19 18 17 17 17 17 16 16 15 14 13 12 12 11 11 12 11 10 10 10 10 10 10 10 10 10 10 10 10 10 10 10 9 9 9 8 7 7 7 7 7 7 7 7 8 9 10 8 6
8 7 6 5 5 7 3 3 3 4 4 6 8 9 9 7 6 8 11 13 11 12 15 14 14 15 15 14 13 14 14 13 13 15 17 19 21 21 21 19 19 19 19 20 20 20 20 20 19 19 18 17 17 17 16 15 14 14 13 11 11 11 9 9 10 10 10 10 10 10 10 10 11 10 10 10 10 10 10 10 9 9 9 8 8 7 7 7 7 8 8 8 8 9 10 10 8
8 9 8 7 7 8 6 3 4 5 7 6 7 8 6 3 3 5 8 11 11 11 14 14 15 15 15 15 14 14 15 14 15 15 16 18 20 21 21 20 19 19 19 19 20 20 19 20 20 20 19 18 17 17 17 15 14 14 13 12 11 11 10 9 11 11 11 11 11 10 10 10 10 10 10 11 10 10 10 10 10 9 8 8 8 8 7 7 7 7 8 8 9 9 9 9 8
7 9 7 6 7 8 9 8 6 6 5 4 4 7 3 2 3 3 6 9 11 11 13 15 15 15 15 15 14 15 15 14 15 15 16 18 20 21 21 21 20 20 20 19 20 20 19 19 20 20 19 18 17 17 18 17 15 15 14 14 13 12 12 12 12 12 11 11 11 10 9 9 10 10 10 10 10 10 10 10 9 9 9 8 8 8 7 7 7 8 8 8 9 10 9 9 8
7 4 2 5 8 9 10 9 6 5 5 2 4 6 4 4 6 2 5 7 10 11 14 16 15 15 15 15 15 15 15 15 15 16 16 17 20 22 22 22 22 20 20 20 19 19 19 18 19 20 19 18 17 17 19 19 17 16 15 15 15 14 13 12 12 11 10 9 9 9 9 8 9 9 9 10 10 10 10 9 9 9 9 9 8 8 8 8 8 8 7 7 8 9 8 9 10
7 1 2 7 9 10 11 10 7 5 6 6 6 6 6 5 4 3 5 6 8 11 14 15 15 16 17 16 16 17 17 16 15 15 16 17 20 22 23 23 23 22 21 20 20 19 19 18 18 19 18 17 17 17 19 19 18 17 16 16 15 14 13 12 11 11 9 8 8 8 8 7 8 8 8 9 9 9 9 9 9 9 9 9 8 9 9 8 8 6 4 5 7 7 8 9 10
8 4 5 8 9 10 10 9 7 4 6 7 6 4 5 6 3 4 5 6 6 10 12 14 16 17 18 18 18 18 18 17 16 16 16 17 19 21 23 24 23 23 21 21 20 19 19 19 19 19 19 17 17 18 19 20 19 17 17 16 15 14 13 11 10 10 10 9 8 8 7 7 7 7 8 8 8 9 9 9 9 9 10 10 9 10 9 8 8 6 6 6 7 8 9 10 10
7 6 8 9 8 8 8 8 7 5 6 8 5 3 5 6 5 3 4 4 5 5 6 11 15 17 17 18 18 18 17 16 17 16 15 18 20 21 23 23 23 23 22 21 20 19 19 20 20 20 20 18 18 20 20 20 19 18 17 17 16 14 13 12 10 9 9 9 9 9 8 7 7 7 7 8 8 8 8 9 9 10 10 10 10 10 10 9 9 8 8 8 8 8 9 10 10
8 7 10 11 7 5 6 6 4 5 8 8 5 5 6 6 6 4 3 3 5 5 2 4 10 14 16 16 17 18 16 15 16 16 17 20 20 19 22 23 24 23 22 21 20 20 19 20 20 21 21 19 19 20 20 20 19 18 18 17 17 16 14 12 11 10 9 9 9 9 9 8 8 7 6 6 7 8 8 9 9 10 10 10 10 10 10 10 9 9 9 9 9 9 10 10 11
8 7 9 9 6 5 6 5 3 6 8 4 3 6 8 7 5 4 5 7 7 5 4 4 3 8 13 14 15 16 17 16 16 15 15 17 17 20 24 24 23 22 21 21 21 20 20 20 21 22 21 20 20 20 20 19 19 18 18 17 17 17 15 13 12 11 10 9 10 10 9 8 8 7 7 6 7 7 8 8 9 9 9 9 10 10 10 10 9 9 9 9 9 9 10 11 11
7 8 8 8 7 6 7 6 5 7 7 3 3 7 7 7 5 5 9 10 6 5 7 8 7 4 7 11 13 14 15 17 17 16 15 15 16 20 24 24 22 22 22 22 21 20 20 20 21 22 22 22 21 20 20 19 19 19 18 17 17 16 15 13 12 11 10 10 10 10 10 9 9 8 8 8 7 7 8 8 8 9 9 9 10 10 10 9 9 9 9 9 9 10 10 11 13
7 7 7 7 7 8 8 7 6 8 7 3 3 6 7 7 4 5 10 9 8 9 8 8 7 6 5 7 10 12 14 16 16 16 17 16 16 19 22 22 21 21 22 23 22 21 20 20 21 22 23 23 21 20 20 20 20 19 18 17 16 15 14 14 12 11 11 11 10 11 10 10 10 10 9 8 8 7 7 7 7 8 9 9 10 10 10 10 10 10 10 10 10 10 10 12 13
6 5 7 8 7 8 8 7 6 7 7 4 2 4 7 5 1 2 6 8 10 9 10 9 5 4 4 5 7 10 13 14 14 15 16 16 17 21 23 21 20 21 23 23 22 21 20 20 22 23 22 21 21 20 19 20 20 19 18 17 15 14 14 13 12 11 10 10 10 10 10 10 9 9 9 8 8 8 8 8 7 8 8 9 9 9 10 10 10 11 12 12 12 11 11 13 14
4 4 7 9 7 8 8 8 8 8 7 5 4 5 7 5 6 6 3 8 9 11 13 10 6 5 2 3 6 8 10 11 13 14 15 16 18 21 22 22 22 22 23 22 21 21 21 20 21 22 21 20 20 21 21 20 20 18 17 17 16 15 13 12 12 11 11 10 10 10 10 10 10 9 8 8 8 9 9 8 8 8 8 8 9 9 9 10 10 10 11 12 13 12 12 13 14
3 3 6 5 5 8 8 8 9 8 8 7 6 7 7 6 8 6 2 9 11 13 13 9 7 6 2 2 4 7 8 9 12 13 14 15 16 18 20 21 22 22 21 21 21 21 21 20 20 20 19 19 21 22 21 20 19 18 18 18 17 16 15 14 13 12 11 11 10 10 10 10 11 11 11 10 9 9 9 8 8 8 7 8 9 9 9 9 10 10 11 11 12 13 13 14 14
6 5 5 6 4 6 6 6 8 8 8 8 8 9 8 6 5 3 5 11 11 11 12 9 9 6 2 3 3 4 6 8 10 11 13 14 15 18 19 19 20 20 20 21 21 21 21 21 20 21 21 22 22 22 21 19 18 18 17 17 17 16 15 14 13 12 11 11 10 10 10 11 11 12 12 11 10 9 9 9 8 8 8 8 8 9 11 12 12 13 14 14 15 15 15 16 16
7 6 5 5 6 6 5 6 7 8 9 8 9 10 7 5 3 5 8 11 12 12 12 11 10 8 5 4 4 4 5 7 9 10 12 13 14 17 19 19 20 19 19 20 22 21 21 20 20 21 22 22 21 20 18 17 17 16 15 15 16 16 14 13 12 11 11 11 11 10 10 11 11 12 12 11 10 11 10 10 9 9 9 9 9 10 13 14 13 14 15 15 17 17 16 16 15
6 5 4 5 5 6 6 6 7 8 9 8 9 9 5 0 3 6 9 10 11 12 12 11 10 10 7 6 5 3 4 5 7 9 10 12 14 17 18 18 18 18 17 18 20 20 19 19 19 18 18 18 18 17 16 16 16 15 14 14 14 14 14 13 12 12 11 11 11 11 11 11 12 12 12 11 12 12 12 11 11 10 9 10 10 10 11 12 13 14 15 14 14 15 15 13 13
4 5 6 6 5 6 6 7 7 7 8 7 8 8 2 3 4 5 7 8 9 11 11 10 10 11 10 9 8 4 2 3 5 7 9 11 13 17 18 18 17 16 15 16 16 17 17 16 16 16 16 17 17 17 16 16 16 16 15 14 13 13 13 13 12 12 12 11 11 11 11 11 11 11 11 12 13 13 13 12 12 12 10 10 12 12 11 11 13 14 14 13 12 12 13 13 14
7 7 7 7 7 7 7 8 8 7 8 7 8 8 1 4 3 4 5 6 7 10 10 9 10 11 12 11 10 8 5 1 3 6 8 9 12 15 17 18 16 15 15 16 13 13 14 14 14 16 17 19 20 19 18 18 17 17 16 15 14 13 13 12 12 12 12 12 12 12 12 12 12 11 12 13 14 13 12 12 12 12 11 11 13 14 13 13 14 14 14 12 12 12 13 14 14
Wind_Direction
172 189 210 223 218 225 208 227 233 181 200 85 88 100 84 75 112 124 126 137 134 129 134 138 138 129 130 123 122 80 62 131 69 98 133 119 140 146 150 152 151 152 153 151 152 152 149 150 157 156 151 150 151 150 145 139 135 135 136 136 136 138 138 133 126 112 105 100 96 93 93 93 89 86 84 80 77 78 79 77 75 72 69 66 67 68 69 69 67 68 62 43 40 46 50 51 46
195 209 221 240 225 232 203 202 242 136 128 90 80 76 103 130 129 118 127 142 126 132 141 136 134 128 126 118 121 89 72 69 55 89 107 133 141 144 150 153 154 154 153 153 152 153 153 154 157 156 154 154 154 150 143 138 137 137 137 136 138 142 139 136 129 114 107 102 98 92 89 89 88 87 83 79 77 76 74 74 72 68 65 61 62 65 66 66 66 67 68 54 35 36 39 37 35
218 230 237 253 232 233 246 210 244 97 103 89 85 85 121 122 107 109 115 119 118 135 139 136 134 122 141 137 113 69 100 79 90 109 120 141 145 149 153 153 155 154 154 154 155 156 155 157 159 157 156 156 153 149 143 139 140 139 139 140 144 146 141 140 132 119 111 103 97 90 88 87 86 85 80 75 74 73 70 71 68 64 60 57 57 57 61 62 61 61 61 62 48 35 36 31 24
237 255 256 269 236 223 251 228 350 66 90 86 93 92 108 102 101 111 108 116 126 139 141 142 132 80 137 130 85 70 109 99 103 116 136 151 151 151 154 153 154 152 153 155 157 158 156 159 160 159 158 156 151 149 146 143 144 143 144 147 150 148 145 144 134 124 114 104 99 94 91 87 86 83 78 74 72 70 68 69 67 64 59 56 54 51 52 53 54 53 50 54 57 44 39 33 17
256 266 263 274 266 258 282 261 51 66 70 69 97 94 98 99 104 114 115 124 135 145 146 149 124 98 88 81 35 81 108 105 110 127 144 151 149 151 154 154 155 152 154 156 157 160 158 159 161 161 162 159 154 151 150 147 147 146 150 153 151 148 149 146 134 127 116 107 102 97 94 90 88 82 78 75 72 68 65 65 63 59 56 54 52 51 49 48 48 46 45 44 48 44 35 28 16
266 267 245 258 281 328 282 132 78 81 53 28 91 99 100 101 106 116 121 126 134 146 149 145 119 123 105 73 49 64 95 113 122 141 147 148 150 153 156 156 157 153 154 157 157 161 161 161 163 163 164 163 157 152 151 151 152 152 156 156 150 150 151 145 136 129 117 110 106 101 98 94 89 85 82 76 70 66 64 61 58 54 51 51 49 47 44 44 42 39 39 36 38 37 26 19 14
280 272 223 238 233 246 268 87 74 84 57 18 81 99 103 108 115 124 129 130 132 144 154 143 130 128 95 97 95 71 82 110 128 147 149 150 152 155 158 159 158 154 153 156 156 160 163 164 166 167 169 166 161 157 156 158 159 158 161 157 151 151 149 143 139 131 120 114 110 105 101 97 92 89 84 75 71 67 64 61 56 53 50 49 48 43 39 39 37 34 32 28 27 25 21 10 11
273 278 243 260 227 199 61 81 68 73 79 54 76 92 107 119 126 132 134 136 140 147 161 158 164 148 87 132 120 89 107 115 135 147 150 152 155 157 159 160 159 157 154 156 156 159 164 166 168 171 173 171 165 163 164 165 165 164 162 157 154 149 144 143 139 133 126 121 113 107 104 100 96 91 83 75 71 64 62 61 57 53 48 46 47 42 34 34 33 30 28 22 17 15 13 4 7
256 263 255 260 250 126 91 94 88 79 89 88 88 97 112 124 131 135 133 135 144 153 163 164 179 163 125 141 103 113 134 132 141 146 153 154 156 158 159 161 161 161 158 158 158 157 165 170 172 172 173 172 166 165 165 165 166 166 161 156 154 147 145 145 139 134 131 125 116 109 106 101 98 93 83 73 69 61 52 46 43 40 37 33 37 39 32 27 24 21 21 18 12 9 8 2 7
242 234 276 273 233 135 118 105 101 94 92 92 96 110 121 131 136 130 127 127 137 152 153 157 172 159 143 136 100 116 134 141 149 150 156 155 157 159 159 163 162 163 160 161 160 156 163 170 172 170 169 168 165 166 165 164 163 162 157 156 155 148 149 147 138 133 130 126 119 111 110 105 99 94 84 82 76 63 47 29 20 19 22 22 19 22 27 24 18 11 11 11 8 5 4 5 10
246 188 271 272 204 132 109 104 107 104 103 107 105 115 131 139 135 118 118 122 136 146 141 159 175 167 158 141 106 105 129 148 156 155 157 156 158 160 160 163 164 165 163 164 162 158 163 167 169 167 166 167 168 170 168 168 166 162 156 157 156 149 149 144 137 135 132 130 125 117 118 113 105 101 97 105 86 45 32 22 10 6 8 11 10 9 16 18 14 6 5 5 4 4 1 7 20
288 212 259 266 55 66 87 102 108 111 123 132 121 134 156 144 130 118 123 120 138 149 149 173 165 163 179 156 118 123 145 157 159 157 158 158 159 161 161 163 166 167 165 165 163 159 161 163 166 166 167 168 171 173 172 174 175 172 164 160 156 150 147 143 142 142 140 139 135 129 130 124 114 116 116 122 99 28 10 8 0 355 356 2 7 3 7 10 8 5 3 3 0 4 3 13 25
322 324 285 328 32 58 104 106 117 136 141 128 118 138 178 162 140 121 123 116 138 152 152 168 142 167 191 125 116 139 158 162 160 159 159 160 159 161 161 162 167 167 167 167 165 162 162 161 164 168 169 169 170 174 176 178 181 182 176 167 160 154 151 150 152 151 147 142 138 137 138 134 122 117 115 122 34 13 6 9 350 345 351 355 360 355 359 1 1 2 0 1 357 2 9 18 17
327 326 305 18 88 99 113 117 142 173 134 112 120 145 181 176 140 119 130 127 129 103 123 148 160 184 176 138 150 160 168 165 162 161 162 162 160 161 160 162 166 167 167 170 170 164 164 164 165 168 170 171 173 175 176 178 180 183 180 171 166 160 155 155 157 154 150 145 136 127 128 137 139 132 103 42 343 347 2 11 344 337 346 345 351 347 350 354 354 356 356 4 0 357 8 17 9
318 306 288 186 134 146 126 86 144 201 121 124 139 149 177 162 133 152 173 139 108 95 116 144 177 193 149 175 177 159 167 165 162 162 163 163 161 162 160 162 166 168 169 172 173 169 167 166 167 171 172 175 177 177 178 181 180 178 177 172 170 166 162 164 166 161 154 147 139 124 116 117 118 123 12 8 339 349 10 7 334 331 343 340 343 340 341 348 349 351 358 8 2 352 3 13 5
311 288 262 188 158 173 142 134 192 202 107 122 138 159 186 150 154 172 155 221 108 134 164 152 182 246 47 249 122 144 162 163 162 162 163 163 162 163 163 164 166 169 171 173 177 174 170 168 171 173 175 179 178 178 178 182 184 180 179 178 178 177 177 176 176 178 172 164 142 132 101 96 88 333 22 16 333 347 345 328 322 329 338 333 335 333 334 343 345 350 355 3 359 346 355 15 11
281 266 254 200 162 118 117 177 203 207 100 117 141 175 197 146 151 138 138 193 141 157 182 137 169 244 359 45 112 140 158 162 162 163 164 164 163 166 167 167 167 169 172 175 179 177 174 172 174 176 177 181 179 179 178 180 186 187 187 188 189 191 191 184 181 185 189 213 230 200 121 129 183 266 339 320 310 328 314 313 321 324 327 327 332 331 333 340 341 345 350 356 355 340 351 15 6
278 268 261 314 78 73 33 22 55 283 114 111 134 179 205 165 159 149 163 180 156 161 170 146 148 143 77 99 122 142 158 163 164 166 167 167 168 170 171 170 170 170 172 176 180 180 178 176 178 179 179 180 179 179 178 179 186 188 189 192 196 202 202 193 190 195 203 215 218 218 216 208 215 257 297 282 291 298 299 307 314 316 318 322 330 332 333 336 336 340 344 350 349 345 7 11 355
306 312 306 47 44 64 82 59 66 10 67 98 134 172 204 175 153 159 186 174 163 172 165 166 153 132 123 126 136 148 159 166 168 170 170 171 171 171 171 171 172 172 173 175 179 182 182 180 180 181 180 181 179 180 181 181 186 188 188 194 200 205 206 200 200 209 213 212 213 219 219 222 230 255 275 279 292 296 299 305 313 317 318 319 324 332 334 333 337 341 343 349 355 2 16 358 351
332 319 352 61 32 66 114 116 98 69 68 120 125 153 211 165 149 168 207 185 177 199 170 174 169 147 143 141 146 154 164 169 171 174 173 172 173 172 172 172 174 175 174 174 177 182 184 182 181 183 183 183 182 182 184 185 190 191 190 197 202 202 204 203 207 216 219 217 219 225 230 235 240 250 267 284 294 296 300 307 316 321 321 320 321 330 333 329 338 344 342 351 359 359 1 341 357
340 337 5 51 5 67 120 134 125 106 105 160 122 179 212 153 179 191 212 207 190 209 183 185 177 152 150 151 154 161 167 171 174 176 174 175 175 174 173 174 177 176 176 175 175 181 184 184 183 183 185 186 187 186 187 189 192 193 192 196 201 202 203 205 209 216 221 224 227 231 236 243 245 244 251 270 283 284 289 297 306 310 311 311 316 324 324 322 332 336 334 342 337 320 331 349 358
328 36 26 31 336 44 119 149 145 134 133 190 173 202 247 143 207 210 217 231 197 127 162 179 166 154 157 159 160 165 170 173 177 179 176 177 177 176 175 175 178 178 179 179 179 181 182 185 185 184 186 188 190 189 190 190 190 192 196 196 199 205 208 208 212 218 221 224 229 231 234 242 243 238 242 252 269 283 291 293 295 298 300 305 313 318 316 319 326 327 327 329 318 309 325 346 350
341 65 47 23 349 36 114 172 171 187 194 191 171 216 270 244 227 214 225 243 351 44 116 155 153 156 159 159 163 170 172 175 179 181 179 179 179 178 177 177 179 179 181 184 183 182 183 186 186 184 186 189 191 191 191 190 191 195 199 200 201 206 211 214 219 222 225 227 229 230 231 241 243 238 240 249 263 277 285 291 294 296 298 303 307 308 312 317 320 321 323 323 312 307 317 338 342
345 36 42 37 26 37 122 179 192 217 219 169 264 244 247 255 254 241 237 242 251 60 135 145 147 154 158 161 166 172 174 176 180 183 182 181 182 181 181 181 181 180 182 186 185 184 185 186 186 186 185 187 190 191 192 193 196 200 201 204 206 211 215 217 223 226 230 233 233 233 232 238 247 244 242 250 258 265 276 286 290 291 291 293 297 303 307 310 315 315 318 316 307 304 313 335 341
353 15 36 40 189 163 145 172 190 221 235 235 250 243 244 251 260 260 249 242 179 142 147 148 151 155 162 166 169 172 176 178 179 183 185 185 185 185 186 185 184 184 185 187 186 186 188 188 188 189 188 188 189 190 194 197 198 202 205 208 210 214 218 221 226 230 233 237 236 235 233 239 248 248 249 254 257 259 267 276 279 282 283 283 290 296 297 305 310 310 311 305 297 299 308 335 340
3 3 30 311 199 187 184 179 189 220 232 238 243 233 238 241 251 250 237 234 163 157 161 156 157 160 166 169 170 174 177 180 180 182 185 185 187 188 190 190 188 189 188 187 188 189 188 189 191 192 191 190 191 192 195 199 201 204 207 211 214 215 220 224 227 233 236 238 238 235 235 240 248 253 256 259 259 259 262 269 271 272 275 279 283 287 292 299 301 305 305 297 296 298 303 332 335
346 339 344 254 213 197 208 197 194 215 224 229 243 239 234 228 236 231 198 198 176 168 168 163 165 166 167 168 171 177 179 182 183 182 184 185 189 190 191 193 192 191 190 190 189 189 187 189 191 192 192 190 192 195 197 201 203 206 209 211 217 218 221 225 228 235 238 238 239 237 239 241 247 255 257 260 260 256 257 261 262 264 268 273 275 279 286 291 295 298 295 292 292 291 294 315 322
326 322 284 224 213 215 213 215 200 209 221 215 244 258 242 222 232 237 180 178 180 175 171 169 172 167 166 168 170 178 182 183 184 185 187 188 190 191 193 194 194 193 192 193 189 188 188 188 190 191 192 191 193 197 199 203 205 209 211 213 219 221 223 227 230 235 236 239 239 237 239 241 245 250 253 256 254 250 252 256 256 258 262 267 270 274 281 286 289 287 286 287 283 281 283 287 291
307 304 288 228 199 216 204 211 203 214 217 170 237 260 233 214 219 225 193 178 178 177 174 171 172 169 168 168 170 179 184 184 185 189 191 191 193 194 195 195 195 195 194 195 191 188 189 189 190 191 193 194 195 199 201 205 207 210 213 215 219 220 224 229 232 235 236 240 239 238 238 239 242 244 251 251 248 248 248 253 255 255 258 263 269 273 278 281 279 278 278 274 269 265 261 260 268
276 268 294 269 175 152 159 187 192 207 186 140 227 263 239 213 204 199 188 180 179 179 177 174 173 173 170 168 175 181 183 186 187 193 194 194 195 196 198 196 196 196 194 195 194 191 190 189 190 192 195 196 197 200 203 205 208 210 213 217 220 220 225 229 233 235 237 240 239 238 238 240 240 239 244 245 245 249 248 248 250 252 255 260 269 272 273 274 269 271 270 259 249 245 249 257 270
288 267 269 290 63 103 127 167 182 186 158 158 224 274 305 254 190 183 188 181 182 186 181 177 178 177 171 170 179 182 185 190 191 195 197 196 197 197 199 198 197 198 196 196 197 194 191 190 190 191 194 196 198 200 204 207 209 212 214 218 221 222 225 229 232 234 233 236 237 235 235 237 237 233 235 237 241 246 247 245 242 246 251 256 266 267 267 269 265 264 262 252 237 231 239 250 258
300 292 259 335 352 81 118 150 190 194 164 176 209 273 262 228 170 181 190 183 187 194 186 181 184 182 174 174 181 184 186 191 194 196 196 197 199 199 200 200 197 199 199 198 198 197 196 193 192 192 194 196 198 200 203 208 211 215 217 219 223 224 226 229 230 233 233 233 234 233 231 232 231 225 226 229 234 242 246 244 238 239 245 251 258 261 265 266 261 257 252 251 242 233 239 244 246
244 302 322 349 335 349 98 149 190 208 187 188 209 264 273 186 154 183 188 189 196 198 193 188 188 185 179 178 183 186 185 189 194 196 194 196 199 200 201 201 199 200 200 199 197 198 199 196 195 197 197 197 199 200 202 207 211 216 220 221 224 224 226 228 229 231 234 233 233 232 227 227 227 221 220 223 229 239 244 243 239 237 239 245 250 255 261 259 256 254 248 248 245 240 243 246 249
282 306 316 321 324 327 341 134 166 196 220 219 218 242 272 256 176 183 187 195 202 201 199 194 190 188 186 184 186 187 187 190 194 195 194 194 197 199 199 199 199 199 200 200 198 198 200 197 196 200 200 198 199 199 200 204 210 215 219 222 223 224 227 228 228 228 231 232 231 230 226 224 225 221 220 222 227 235 240 239 236 235 236 241 244 247 253 254 253 253 249 241 239 241 243 250 261
308 309 310 312 315 312 324 5 77 207 235 246 233 240 265 261 206 194 195 195 204 207 204 200 194 190 189 191 191 190 191 193 193 195 194 192 195 197 197 198 197 198 200 201 199 198 199 199 197 198 200 199 196 196 196 199 207 211 214 219 221 224 228 227 227 227 229 231 230 228 225 222 222 222 220 223 228 232 236 236 233 231 233 237 241 242 244 246 246 248 249 241 237 240 242 254 266
307 303 301 303 303 301 324 346 4 273 263 250 248 256 270 268 224 203 201 195 203 209 205 204 201 193 192 197 197 194 196 196 192 193 194 193 194 195 196 197 197 198 200 200 200 198 198 199 197 196 198 199 193 191 192 196 201 206 208 213 217 221 224 224 225 227 229 230 230 227 225 224 221 221 221 224 229 231 233 233 230 229 230 233 237 238 239 238 238 241 245 243 238 234 235 243 249
296 293 285 283 292 297 311 335 73 240 279 276 270 272 277 276 254 212 203 199 201 205 204 203 204 201 197 200 201 197 199 198 190 191 194 194 194 194 194 196 197 198 198 199 200 199 198 198 197 196 196 197 194 189 190 194 197 199 204 210 216 218 218 221 223 226 229 231 229 226 224 224 223 222 222 223 226 228 231 231 227 226 227 230 233 236 240 245 246 243 241 240 233 228 231 233 230
286 285 282 284 293 293 294 319 109 179 264 298 296 283 278 269 258 225 202 204 205 204 204 202 202 203 202 203 203 200 199 196 189 188 192 194 195 194 193 195 197 197 196 197 199 200 200 200 200 199 197 197 197 194 191 194 197 199 202 208 215 218 214 217 222 225 229 231 229 225 223 223 222 223 220 220 221 222 226 227 225 225 224 227 233 236 240 245 246 241 236 233 227 224 231 236 227
278 274 274 280 285 284 276 135 137 184 242 306 306 292 286 270 256 232 203 207 212 207 206 204 202 202 204 204 202 201 200 195 191 189 190 193 193 193 193 194 197 198 197 196 198 200 200 201 201 199 199 199 199 198 195 195 198 200 204 208 213 219 217 217 223 226 227 229 226 221 221 221 221 221 218 218 219 220 224 225 223 223 222 224 231 236 237 237 236 233 229 229 227 221 224 232 228
261 261 268 270 273 285 287 127 156 213 233 291 302 291 286 273 246 228 211 210 214 213 211 207 205 205 205 205 203 201 198 195 195 192 190 192 192 192 193 193 195 197 197 196 196 197 198 199 198 198 198 199 200 199 197 197 197 197 203 208 211 220 226 223 225 228 227 227 225 220 219 219 219 219 219 218 219 221 222 222 224 224 222 222 228 234 235 232 228 225 223 223 227 225 223 224 219
255 257 264 272 280 297 311 315 296 259 231 248 285 286 277 254 216 213 203 204 211 213 214 211 209 209 207 207 208 206 201 196 196 196 191 191 191 191 191 193 193 195 196 196 196 195 196 197 196 195 195 197 199 197 195 194 192 193 197 204 211 219 227 226 224 226 223 222 223 222 220 217 215 216 219 219 219 220 221 221 223 225 223 222 227 231 232 232 227 224 223 218 223 231 233 229 219
261 250 254 284 298 305 308 304 301 282 245 207 267 291 278 219 247 206 165 192 207 206 212 215 211 208 208 209 209 209 206 200 198 200 195 191 191 190 190 192 193 194 195 196 196 195 195 196 193 192 192 195 197 195 194 193 193 194 196 201 207 212 217 220 222 223 221 218 219 219 216 211 210 214 218 220 220 219 220 220 220 223 224 222 226 231 234 235 231 227 224 219 223 229 239 244 232
263 240 262 296 298 302 302 300 292 284 286 237 249 287 286 254 266 211 155 195 204 200 211 215 212 209 208 208 206 206 208 202 199 201 199 193 191 190 191 194 195 196 196 196 197 197 195 194 191 190 191 193 194 193 193 194 197 199 200 204 207 209 214 218 221 222 220 215 214 211 207 204 207 213 217 219 220 218 218 220 218 220 225 225 224 228 234 235 232 229 223 223 230 229 231 243 244
265 310 317 291 296 304 303 295 279 269 281 260 239 265 278 267 265 174 175 211 204 204 213 213 213 211 210 210 205 203 206 203 199 199 201 198 193 194 193 195 197 197 197 196 197 197 195 194 191 190 190 191 191 191 192 195 198 200 202 206 210 212 217 219 217 218 218 212 210 207 205 204 203 210 219 219 219 218 218 219 217 218 224 227 227 229 234 236 236 236 231 231 240 238 232 238 247
268 303 308 296 298 301 300 290 276 269 273 261 227 235 274 270 242 177 200 243 230 214 213 213 216 213 211 212 207 203 203 204 201 195 202 202 195 198 199 196 198 198 197 197 196 196 194 193 192 189 188 189 190 189 191 195 198 199 201 207 212 215 219 219 215 215 215 210 209 210 209 210 206 207 217 221 220 220 219 220 220 220 223 226 230 233 235 238 240 240 239 236 237 238 239 241 246
274 299 290 278 277 288 294 285 278 266 259 261 253 275 291 280 271 233 217 258 271 241 209 207 214 215 212 211 209 205 200 204 204 193 197 203 197 201 204 199 197 199 198 196 196 196 194 191 190 188 188 189 190 190 192 195 197 199 203 208 212 215 217 217 214 212 211 209 212 212 210 216 220 217 215 216 219 220 220 222 224 224 226 228 231 236 238 239 241 242 242 242 242 243 243 244 248
277 282 271 261 251 265 282 278 279 269 257 254 263 289 283 275 278 258 227 284 299 296 269 206 207 210 212 212 210 205 198 200 204 197 192 193 194 203 210 205 198 198 197 195 196 195 193 190 187 188 190 189 190 191 192 195 198 202 207 210 213 216 217 216 214 212 210 211 214 217 215 217 223 227 221 213 213 218 219 222 225 228 230 230 231 235 239 241 242 245 246 245 246 248 249 250 253
266 263 264 261 244 236 254 250 232 256 260 239 230 255 254 257 261 259 296 312 305 303 315 321 266 208 206 212 211 206 201 196 196 199 191 183 188 201 209 207 198 196 196 195 196 194 192 191 188 188 191 190 190 191 193 196 199 204 209 211 214 218 219 218 216 216 214 214 217 219 218 217 221 226 227 223 220 220 219 221 227 230 230 231 234 237 241 246 250 253 255 254 253 253 255 258 258
234 240 253 259 255 248 248 247 244 256 259 243 264 264 255 259 258 259 282 295 316 336 324 322 322 272 211 211 213 208 205 198 190 193 191 184 188 197 205 204 195 193 195 195 196 194 192 192 189 189 190 191 190 191 194 196 199 205 207 210 214 217 220 221 220 220 218 217 219 219 215 215 219 224 227 228 228 226 222 223 228 230 231 231 234 236 240 246 253 257 259 260 263 261 260 259 260
233 240 251 251 258 263 261 258 259 264 259 239 271 281 265 257 239 228 259 292 342 348 330 322 318 298 252 220 214 208 206 203 195 192 191 187 185 191 199 199 193 193 194 194 196 194 192 192 191 191 192 190 189 189 192 196 201 205 207 209 212 214 217 219 220 221 219 217 218 220 219 216 216 220 225 226 228 232 229 226 226 230 233 231 232 235 239 243 247 252 256 259 262 262 262 262 260
273 289 281 265 264 266 272 275 267 269 264 224 205 270 264 259 339 253 279 334 358 356 346 337 327 310 268 223 207 205 205 204 200 195 192 187 185 189 192 189 189 195 195 193 194 192 192 193 192 193 191 187 185 187 191 196 202 206 206 208 211 213 215 216 217 219 219 218 217 218 220 223 222 220 221 222 224 231 234 231 228 231 233 231 233 237 240 242 242 243 247 249 253 256 257 260 261
280 304 272 263 269 267 272 282 283 288 280 247 217 248 262 280 302 285 320 18 4 350 345 334 343 0 314 207 188 196 200 204 203 196 192 189 187 188 187 183 185 193 194 192 192 191 192 194 193 192 188 183 184 188 192 197 201 204 205 208 209 210 212 214 215 214 218 221 221 220 217 221 229 227 224 224 223 227 233 233 232 233 231 229 233 237 240 241 238 239 244 245 249 252 252 255 259
305 273 268 290 297 278 276 273 275 278 273 264 246 244 251 260 267 262 7 17 357 344 337 331 356 10 355 152 174 190 191 201 205 198 191 188 186 186 187 185 186 190 192 190 191 190 191 193 191 188 184 183 187 191 194 197 200 202 204 207 208 208 210 214 214 214 217 219 219 223 223 221 225 227 228 230 227 225 229 232 237 238 229 228 232 234 236 236 233 234 237 240 244 248 250 253 257
284 276 311 337 296 263 268 261 259 257 257 263 256 253 254 250 254 275 340 353 351 339 334 346 9 14 27 79 123 179 188 199 204 199 189 184 184 184 184 187 189 190 190 188 188 189 190 191 187 182 182 186 190 192 194 196 198 201 204 207 209 209 211 215 217 217 217 217 215 217 223 224 225 227 229 231 232 229 229 231 237 239 235 233 228 225 231 235 236 237 236 238 241 243 249 253 254
266 299 323 306 271 259 259 257 264 263 262 265 258 255 257 257 296 328 333 342 344 338 343 357 12 15 19 58 100 146 177 192 200 198 188 182 183 183 185 190 190 189 190 188 186 186 188 188 185 183 184 186 188 188 192 195 197 201 205 208 209 209 211 212 213 216 216 218 217 216 220 225 228 229 228 230 235 237 236 234 231 234 236 226 211 221 239 245 247 250 252 253 254 253 255 257 256
229 281 273 257 273 277 266 265 270 265 265 270 266 261 251 138 12 340 335 342 344 343 348 353 7 20 23 32 55 114 161 180 196 199 190 182 182 184 185 187 187 185 187 186 184 184 186 186 185 183 181 183 184 183 186 191 195 200 203 206 207 206 207 207 205 210 215 218 219 219 223 226 227 229 228 228 233 238 241 240 236 239 231 212 212 229 244 251 255 260 263 263 260 257 255 256 260
247 265 263 255 265 273 275 271 259 256 263 266 266 263 256 65 31 347 340 344 346 345 346 352 8 22 30 28 21 23 88 169 193 201 198 186 185 186 182 181 181 176 174 177 183 190 193 190 186 181 177 176 176 178 185 190 193 198 199 201 205 204 203 204 203 207 215 220 221 222 226 228 227 227 226 228 232 235 239 241 243 247 235 219 230 242 245 251 258 261 262 261 255 252 254 257 261
286 281 277 273 272 273 274 262 244 243 258 262 266 261 217 66 18 356 354 348 348 346 345 355 13 25 29 27 15 10 20 13 198 200 205 192 188 188 180 176 173 162 164 173 181 197 201 193 185 179 175 179 185 193 200 198 192 194 198 198 201 201 200 201 202 206 214 219 220 221 224 226 226 224 225 229 233 235 238 242 245 245 234 226 240 252 255 259 260 256 253 250 248 248 251 255 258
Height
795 796 795 796 794 796 796 796 807 799 795 811 811 811 817 810 808 812 815 813 811 808 800 801 802 805 811 815 817 817 815 821 828 835 841 829 823 829 830 833 836 837 840 842 844 846 847 848 850 850 851 852 853 854 855 856 857 859 860 861 861 862 862 863 863 863 863 863 864 864 864 864 864 864 863 863 863 863 863 863 863 864 864 864 864 864 864 863 863 863 861 861 861 861 860 860 860
796 796 795 796 792 798 795 794 812 802 799 819 814 813 816 808 809 813 813 810 808 804 798 799 803 806 807 807 810 817 820 819 819 823 825 822 826 830 830 834 836 838 841 842 845 846 848 849 850 851 852 853 854 855 856 857 858 859 861 861 862 863 863 864 864 864 864 865 865 865 865 864 864 864 864 864 863 864 864 864 864 864 865 865 865 865 864 864 864 864 863 861 861 861 861 860 860
796 795 793 795 791 793 792 794 809 804 809 823 819 813 809 810 812 811 806 803 801 798 799 801 806 807 808 813 814 820 825 818 815 818 822 824 826 828 832 834 836 839 841 843 845 846 848 849 851 852 852 853 854 855 857 858 859 860 861 862 863 863 864 864 864 865 865 866 866 866 866 865 865 865 865 864 864 865 865 865 865 865 865 866 866 865 865 865 864 864 864 863 862 861 861 861 861
794 794 793 793 792 792 793 797 800 801 814 820 821 815 807 811 810 807 803 799 798 797 802 804 809 807 807 819 816 817 824 818 816 818 823 826 825 829 832 834 837 840 841 844 845 847 848 850 851 852 853 854 855 856 857 859 860 861 862 862 863 864 865 865 865 866 866 866 867 867 867 866 866 866 866 865 865 865 866 866 866 866 866 866 866 866 866 865 865 864 864 864 863 862 862 862 862
793 794 791 791 795 795 793 796 795 803 816 813 818 817 807 808 805 805 802 799 799 799 803 804 812 809 806 816 814 819 823 818 817 818 822 825 826 830 832 835 838 839 842 844 846 848 849 851 852 853 854 855 856 857 858 859 860 861 862 863 864 865 865 866 866 866 867 867 867 868 867 867 867 866 866 866 866 866 867 867 867 867 867 867 867 867 866 866 866 865 865 864 864 864 863 862 862
792 792 790 790 790 791 797 801 801 809 814 805 812 814 806 804 803 804 803 801 799 798 801 804 811 811 813 814 811 816 817 818 819 818 821 824 828 831 833 836 838 840 842 844 847 848 850 852 852 854 855 856 857 858 859 860 861 862 863 864 865 865 866 867 867 867 867 868 868 868 868 868 867 867 867 867 867 867 867 867 868 868 868 868 868 867 867 867 866 866 866 865 865 864 864 863 863
791 792 790 792 790 790 801 805 806 811 811 804 807 809 805 804 802 803 805 806 804 801 801 804 805 812 821 815 815 817 815 818 817 819 822 825 829 831 834 836 838 841 843 845 847 849 851 852 853 855 855 856 857 858 859 860 861 862 864 864 865 866 867 867 867 868 868 869 869 869 869 869 868 868 868 868 868 868 868 868 868 868 868 868 868 868 867 867 867 867 866 866 866 865 865 864 863
791 792 788 797 798 793 800 805 808 810 809 804 803 805 804 803 801 803 807 808 810 807 805 806 803 816 824 815 823 822 816 820 817 821 824 826 830 832 835 836 839 841 843 846 847 849 851 853 854 855 856 857 858 859 860 861 862 863 864 865 866 867 867 868 868 869 869 869 869 869 869 869 869 869 869 869 869 869 869 869 869 869 869 869 868 868 868 868 867 867 867 866 866 865 865 864 864
789 792 790 798 801 799 803 808 811 809 808 806 804 805 802 800 799 803 806 807 808 808 808 806 804 819 824 818 825 821 817 821 820 823 824 827 830 832 835 836 839 841 843 846 848 850 851 854 855 856 857 858 859 860 861 861 863 863 865 865 866 867 868 868 868 869 869 869 869 870 870 870 870 870 870 870 870 870 870 869 869 869 869 869 869 868 868 868 868 867 867 867 866 866 865 865 864
789 791 793 798 799 804 809 809 812 811 810 807 805 804 802 800 799 801 805 807 806 808 807 803 807 817 820 821 824 818 818 822 821 824 826 828 830 833 835 837 840 841 844 846 848 850 852 854 855 857 857 859 860 860 862 862 863 864 865 866 867 867 868 869 869 869 870 870 870 870 871 871 871 870 870 870 870 870 870 870 869 869 869 869 869 868 868 868 868 867 867 867 866 866 865 865 864
794 790 792 801 801 806 810 810 813 812 810 807 806 803 800 798 799 802 804 807 805 808 807 806 812 814 816 821 821 818 819 821 822 825 826 829 831 833 836 838 840 842 844 846 849 850 852 854 856 858 858 860 861 861 863 863 864 865 866 866 867 868 868 869 869 870 870 871 871 871 871 871 871 871 871 871 871 871 871 871 870 870 869 869 869 869 868 868 868 867 867 866 866 866 865 865 864
798 794 792 804 805 806 807 811 814 812 811 809 810 805 798 797 801 804 805 807 806 808 808 808 810 809 819 822 818 818 819 822 823 825 828 830 832 834 836 838 841 842 845 846 849 850 852 854 856 858 859 860 861 863 863 864 865 865 866 867 867 868 869 870 870 870 871 871 871 871 871 871 872 871 871 871 871 871 871 871 870 870 869 869 869 869 868 868 868 867 867 866 866 865 865 865 864
798 798 797 806 805 806 808 811 814 813 813 809 808 804 797 799 803 803 803 806 807 811 808 803 803 807 819 821 817 818 819 822 823 826 828 830 832 834 837 839 841 843 845 847 849 850 853 855 857 858 859 861 862 863 864 864 865 865 866 867 868 869 869 870 870 871 871 871 871 871 872 872 872 871 871 871 871 871 871 871 871 870 869 869 869 869 868 868 868 867 867 866 866 865 865 865 864
795 795 798 808 806 807 808 811 813 812 815 808 804 802 798 800 800 798 801 807 809 807 803 797 800 810 817 818 820 819 819 821 823 826 828 831 833 834 837 839 842 844 846 848 849 851 853 855 857 859 860 861 863 863 864 865 865 866 866 867 868 869 869 870 870 871 871 872 872 872 872 872 872 872 872 871 871 872 871 872 871 870 870 869 869 868 868 868 868 867 867 866 866 865 865 865 864
792 792 796 806 809 809 809 811 808 809 815 808 802 801 801 799 795 798 800 806 808 798 798 798 799 811 815 816 819 815 816 820 822 826 828 831 833 835 838 840 842 844 846 848 850 851 853 855 857 859 860 861 862 863 864 865 865 866 866 867 868 869 870 870 871 871 871 872 872 872 872 872 872 872 872 872 872 872 872 872 871 871 870 869 869 868 868 868 868 867 867 866 866 866 865 865 864
787 791 798 805 811 811 810 809 807 810 812 804 801 800 804 800 793 800 797 797 805 798 799 803 800 806 809 809 809 808 814 819 822 826 828 831 833 836 838 840 843 844 846 848 850 852 853 856 857 859 860 861 862 863 864 865 865 866 867 868 868 869 870 870 871 872 872 872 872 872 872 872 873 873 872 872 872 872 872 872 871 871 870 869 869 868 868 867 867 867 867 866 866 865 865 865 864
787 794 802 805 808 812 812 809 811 816 809 802 801 799 806 805 795 796 792 791 802 803 802 803 800 801 804 804 804 807 815 818 821 825 827 830 832 834 837 839 842 844 846 848 850 851 853 855 857 859 860 861 862 863 864 865 866 866 867 867 868 869 869 870 871 872 872 872 872 872 872 873 873 873 873 873 873 872 872 871 871 870 870 869 869 868 867 867 867 867 866 866 866 865 865 865 864
792 799 804 805 806 811 812 807 808 810 806 802 802 801 805 808 801 795 795 799 802 804 805 803 802 801 802 804 806 810 816 818 821 823 825 827 829 832 834 837 840 843 845 847 849 851 853 855 857 858 859 861 862 863 864 865 866 866 867 868 868 869 869 870 871 872 872 872 873 872 873 873 873 873 873 873 873 872 872 871 870 870 869 869 868 868 867 867 867 866 866 866 865 865 865 865 865
798 800 802 807 808 807 805 804 804 804 804 803 801 800 801 803 800 796 803 807 804 809 809 806 807 807 805 806 809 813 815 818 820 821 823 825 827 829 832 835 839 841 843 846 849 851 852 854 856 858 859 860 861 863 863 864 865 866 867 868 868 869 869 870 871 872 872 872 872 872 873 873 873 873 872 872 872 872 871 870 870 869 869 868 868 868 867 866 866 866 866 865 865 865 866 866 866
798 799 806 809 806 803 802 803 804 802 802 803 802 800 800 799 795 797 805 806 806 809 809 809 812 810 809 808 809 814 816 818 819 821 823 824 826 828 831 834 837 840 842 845 848 850 852 853 855 857 859 860 861 862 863 864 865 866 867 868 868 869 869 870 871 871 871 872 872 872 872 872 872 872 872 872 871 871 871 870 870 869 869 868 868 868 867 867 866 866 865 865 866 866 867 866 866
798 800 809 808 803 804 803 802 803 801 801 803 804 803 802 797 793 798 803 808 812 806 801 803 806 807 808 808 809 813 816 817 819 820 822 824 826 828 831 834 836 839 842 844 847 849 851 852 854 856 858 859 860 861 862 863 864 865 866 867 868 868 869 869 870 870 871 871 871 872 872 872 872 872 872 872 871 871 871 871 870 870 870 869 868 868 868 868 867 867 866 866 866 866 866 866 866
801 802 804 803 802 807 804 800 802 800 800 802 804 806 802 795 795 798 801 809 810 799 794 795 797 801 804 806 808 812 814 816 818 820 821 824 826 828 831 833 836 838 841 843 846 848 850 852 853 855 857 858 860 861 862 863 864 865 865 866 867 868 868 869 869 870 870 870 870 871 871 871 872 872 872 871 871 871 870 870 870 870 869 869 868 868 868 867 867 867 866 866 866 866 866 866 866
804 804 800 801 802 806 804 800 802 800 803 805 805 804 798 799 801 796 798 802 796 789 789 790 793 797 800 803 807 810 812 815 817 818 820 823 825 827 830 832 834 837 840 842 844 847 848 850 852 854 856 857 858 860 861 862 863 864 865 865 866 867 868 868 869 869 869 870 870 870 871 871 871 871 871 871 870 870 871 870 870 870 869 869 868 868 868 867 867 866 866 866 866 866 865 866 866
805 807 802 802 802 804 803 800 802 801 804 805 801 801 801 806 805 797 798 795 788 788 787 788 792 795 799 802 805 808 811 813 816 819 820 823 825 827 829 831 833 836 839 841 843 845 847 849 851 853 854 856 857 859 860 861 862 863 864 865 865 866 867 868 868 868 869 869 869 870 870 870 871 871 870 870 870 870 870 870 870 869 868 869 868 868 868 867 867 866 866 865 865 866 865 865 865
804 806 804 802 803 802 800 800 802 802 803 802 801 805 806 804 802 800 800 792 787 789 788 789 793 796 800 802 804 807 810 813 815 818 821 822 825 827 829 831 833 835 837 839 841 843 845 847 850 852 853 855 856 857 859 860 861 862 863 864 864 865 866 867 867 867 868 868 869 869 869 870 870 870 870 869 869 869 870 869 869 869 868 868 867 867 867 867 866 866 866 865 865 865 865 865 865
802 802 803 803 804 801 800 802 804 804 803 802 805 809 806 800 800 803 797 790 788 788 791 792 794 798 800 802 804 806 809 812 814 817 819 822 824 826 828 830 831 833 836 838 840 842 844 846 848 850 852 853 855 856 858 859 860 861 862 863 863 864 865 866 866 867 867 868 868 868 868 869 869 869 869 869 869 869 869 869 869 868 868 867 867 867 867 867 866 866 865 865 865 865 865 865 865
797 798 801 802 803 800 800 803 803 804 803 803 808 810 806 799 803 807 795 787 788 790 794 794 796 800 800 801 803 805 808 810 813 816 818 821 823 825 827 829 830 832 834 836 838 841 843 845 847 849 851 852 854 855 856 858 859 860 860 862 863 863 864 865 865 866 866 867 867 867 867 867 868 868 868 868 868 869 869 868 868 868 867 867 866 867 867 866 866 866 865 865 865 865 865 865 864
795 797 802 801 801 801 800 803 802 803 804 802 804 809 805 802 806 805 793 787 788 792 796 795 797 799 799 802 803 804 807 809 812 814 816 819 820 823 825 826 828 831 832 834 837 839 841 843 846 848 850 851 853 854 856 857 858 859 860 861 862 862 863 864 864 865 865 866 866 866 866 867 867 867 868 868 868 868 868 868 868 867 867 866 866 866 866 866 865 865 864 864 864 864 865 864 864
796 797 805 803 801 805 802 802 802 802 805 799 802 812 810 806 805 797 789 787 788 792 797 796 798 798 799 801 803 804 805 807 811 812 814 817 819 821 822 825 827 829 831 833 835 837 840 842 844 846 848 850 851 853 854 856 857 858 859 860 861 861 862 863 863 864 864 864 865 865 866 866 866 867 867 867 867 867 868 868 867 867 867 866 866 866 865 865 865 865 864 864 864 864 864 863 863
798 799 805 802 806 813 802 800 801 802 804 796 805 819 812 803 798 791 787 787 790 795 797 797 797 797 798 800 802 804 804 806 809 811 813 815 817 819 821 823 825 827 829 831 833 835 838 840 842 845 846 848 850 852 853 854 856 857 858 858 859 860 861 862 862 863 863 863 864 864 864 865 865 865 866 866 866 867 867 867 867 866 866 866 865 865 865 865 865 864 864 864 863 863 863 862 862
800 803 805 801 810 814 800 798 802 805 803 794 808 822 815 804 796 790 786 786 791 796 796 796 797 796 797 799 802 803 803 805 807 809 812 813 816 817 819 822 823 826 827 829 832 834 836 838 841 843 844 847 848 850 852 853 854 855 856 857 858 859 859 860 861 861 862 862 863 863 863 864 864 864 865 865 866 866 866 866 866 866 865 865 865 865 865 865 864 864 864 863 863 862 862 861 861
801 811 814 805 808 809 800 799 799 805 804 795 809 823 816 805 796 789 786 787 791 795 795 794 796 795 796 798 799 801 801 802 805 807 809 812 814 816 818 819 821 824 825 828 830 832 835 836 839 841 842 845 846 848 850 852 853 854 855 856 857 858 858 859 860 860 861 861 862 862 862 863 863 864 864 865 865 866 866 865 865 865 865 865 865 865 864 864 864 863 863 863 862 862 861 861 860
804 811 819 812 810 808 804 802 795 797 803 800 809 817 811 801 794 789 786 788 791 794 795 794 795 795 795 797 797 798 799 800 802 804 807 810 812 814 816 818 820 822 824 826 828 830 832 834 837 839 840 842 844 847 848 850 851 853 854 855 856 856 857 858 858 859 859 860 860 861 861 861 862 862 863 863 864 865 865 865 865 864 864 864 864 864 864 864 863 863 863 862 862 862 861 860 859
812 809 813 811 810 809 807 806 797 794 801 804 805 808 806 797 791 789 786 787 791 794 795 793 793 794 794 795 795 796 797 799 800 800 804 807 809 812 814 816 818 820 823 824 826 829 830 832 835 837 839 841 843 845 847 848 850 851 852 853 854 855 856 856 857 857 858 858 859 859 860 860 861 861 862 862 863 864 864 864 864 864 864 864 864 864 863 863 863 863 862 862 862 862 861 860 859
819 816 815 813 809 807 807 805 798 795 801 803 803 805 801 791 788 789 786 785 790 792 792 791 791 792 794 793 793 794 795 796 797 798 801 804 807 810 812 815 817 819 821 822 824 827 829 831 833 835 837 839 841 843 845 847 848 850 851 852 853 853 854 855 855 856 856 857 857 858 858 858 859 860 860 861 861 862 863 863 863 863 863 863 863 863 862 862 862 862 862 861 861 861 861 860 860
815 813 813 817 813 808 803 799 794 793 801 802 800 800 795 789 786 787 786 783 788 790 789 791 790 790 792 793 792 792 794 794 793 796 799 802 805 808 811 813 815 817 819 821 823 825 827 829 831 833 835 837 839 841 843 845 847 848 849 850 851 852 852 853 853 854 854 855 855 856 857 857 858 858 859 860 860 861 861 862 862 862 862 862 862 862 861 861 861 861 861 861 861 860 861 860 860
808 809 810 811 811 809 799 796 793 791 801 798 791 794 791 786 783 781 783 783 787 789 790 792 791 790 790 790 790 790 791 790 789 794 797 799 802 805 808 811 813 815 817 819 821 823 825 827 829 831 833 835 837 839 841 842 844 845 846 848 848 849 850 851 851 852 852 853 854 855 855 856 857 857 858 859 859 860 860 860 860 860 861 861 861 861 861 860 860 861 861 860 860 860 859 859 858
805 806 807 806 808 807 795 794 794 791 801 797 788 793 790 783 780 775 778 783 785 785 787 789 789 789 788 788 789 788 788 786 786 791 793 796 799 802 805 808 810 812 814 817 819 821 823 825 827 829 831 833 835 836 838 840 841 843 844 845 846 847 848 849 849 850 851 851 852 853 854 855 856 856 857 857 858 859 859 859 859 859 859 860 860 860 860 860 859 860 860 860 859 859 859 857 858
805 803 805 809 806 801 794 793 794 792 800 797 790 794 789 778 775 772 773 778 778 776 778 782 784 787 787 786 786 786 787 787 786 788 790 793 796 798 802 804 807 809 811 815 817 819 821 823 825 827 829 831 833 835 836 838 839 841 842 843 844 845 845 847 847 848 849 850 851 852 853 854 854 855 856 856 857 857 858 858 858 858 859 859 859 859 859 859 859 859 859 859 858 857 858 857 858
802 800 803 808 800 800 803 798 795 793 796 796 794 794 786 774 772 771 770 771 772 772 772 774 776 781 783 781 781 783 785 787 786 785 786 789 792 795 798 801 804 806 808 811 814 816 818 820 823 824 827 829 831 833 834 836 838 839 841 842 843 844 844 845 846 847 848 848 849 850 851 852 853 854 854 855 856 856 856 857 857 858 858 858 858 858 858 858 858 858 858 858 857 856 856 856 857
798 795 799 802 796 796 799 793 791 791 793 794 796 799 788 775 777 775 768 769 772 772 771 772 773 773 776 777 777 778 780 782 784 783 783 785 788 791 794 798 800 802 805 807 809 812 815 817 820 822 825 827 829 831 833 835 837 838 839 841 842 843 843 844 844 845 846 847 848 848 849 850 851 852 853 854 854 855 855 855 856 857 857 857 857 857 857 857 857 857 857 857 857 856 855 854 855
800 792 789 793 794 794 792 789 792 801 803 794 795 812 802 777 776 776 771 774 775 773 773 773 772 771 773 776 776 776 776 777 779 780 779 781 784 788 791 794 797 799 801 804 806 809 811 814 817 820 822 825 827 829 831 833 834 836 837 838 839 840 841 841 842 842 843 845 846 846 848 849 850 851 851 852 853 853 854 854 855 855 856 856 856 857 856 856 856 856 856 856 857 856 856 855 855
806 789 782 787 790 792 792 790 797 810 810 792 789 811 812 788 777 773 772 777 776 774 774 771 770 770 770 771 773 774 774 774 775 776 775 777 780 784 788 791 793 796 798 800 803 805 809 812 814 818 820 822 825 826 828 831 832 834 835 835 836 837 838 839 840 841 841 842 844 845 846 847 848 849 850 851 852 852 853 853 854 854 855 855 855 856 856 855 855 855 855 856 856 856 856 856 855
803 783 781 788 788 791 792 789 795 800 798 791 785 796 809 801 784 772 771 775 776 775 774 770 767 766 766 765 766 769 770 769 771 774 774 774 777 780 783 787 789 792 795 797 800 803 806 809 812 815 818 820 822 824 826 828 830 831 832 834 834 835 836 837 838 839 840 841 842 843 844 846 847 848 849 849 850 851 851 852 853 853 854 854 855 855 855 855 854 855 855 856 856 856 856 856 856
794 778 781 786 787 790 788 788 791 789 797 804 790 788 809 808 782 770 772 774 774 772 770 769 765 762 762 761 761 762 764 765 766 771 774 772 774 778 780 783 786 789 792 794 797 800 803 807 810 813 815 818 820 822 824 825 827 829 831 832 833 834 834 836 837 838 840 840 841 843 844 845 845 846 848 848 849 850 850 851 852 852 853 853 854 854 854 854 854 855 856 856 856 856 856 856 856
784 778 783 783 784 787 787 790 790 792 808 814 794 788 811 813 785 774 778 777 772 764 759 761 761 758 757 756 756 757 759 762 763 767 772 772 773 777 779 780 783 786 788 791 794 797 801 804 808 810 813 815 817 819 821 823 825 827 829 830 831 832 833 835 836 837 839 840 841 842 843 844 844 845 846 846 847 848 849 850 850 851 852 852 853 853 853 854 854 855 855 856 856 856 856 856 856
779 783 787 784 784 786 791 791 791 809 820 807 792 790 807 818 796 775 775 771 763 758 755 754 753 753 754 752 752 752 755 760 761 763 768 770 772 776 778 778 780 783 785 789 792 794 798 801 805 808 810 812 815 817 819 821 823 825 827 829 830 831 832 834 836 837 838 839 840 841 842 843 843 843 844 845 845 846 847 848 848 849 850 851 851 852 852 853 854 854 855 855 856 856 856 856 856
783 788 790 792 793 793 800 798 801 825 826 800 790 788 799 817 801 774 765 758 751 754 754 752 750 750 751 750 747 747 749 753 758 761 764 767 773 778 779 777 777 780 783 786 789 792 795 799 802 805 807 810 812 815 817 820 822 824 825 827 828 830 831 833 834 836 837 838 839 840 840 841 842 842 843 843 844 845 845 846 847 848 848 849 850 851 852 852 853 854 854 854 855 855 856 856 856
787 790 794 806 812 811 818 818 813 820 812 792 787 790 798 803 786 769 764 755 748 749 749 749 749 747 747 747 746 743 744 746 751 757 762 766 771 775 776 775 774 778 781 783 786 789 793 796 799 802 804 807 809 812 815 818 820 822 823 825 827 828 830 832 833 834 835 836 837 838 839 840 841 841 841 841 842 843 843 844 845 846 847 848 849 850 851 851 852 853 853 853 854 854 854 854 854
785 787 795 810 820 827 832 826 819 818 804 788 785 794 802 793 774 764 759 750 746 747 747 747 746 747 746 744 743 742 742 743 746 750 755 760 765 769 771 772 773 775 778 780 784 787 791 794 797 799 801 804 807 810 813 816 818 819 821 823 825 827 829 830 832 833 833 834 835 836 837 837 838 839 839 840 840 841 842 843 844 845 846 846 847 848 849 850 850 851 851 852 852 852 852 852 852
781 777 785 798 805 819 827 822 821 818 803 791 794 802 803 791 773 758 750 749 750 751 749 745 745 745 744 742 741 742 742 742 743 745 748 753 759 765 767 768 771 774 775 778 781 785 789 791 794 796 799 802 806 808 811 813 815 818 820 822 823 825 827 828 830 831 832 832 833 834 835 836 836 836 837 838 839 840 840 841 842 843 844 845 846 846 847 848 848 848 849 849 849 849 849 850 850
783 775 787 795 789 794 806 808 805 804 804 801 799 798 787 773 761 748 746 754 755 754 752 749 748 745 745 746 744 744 743 743 743 744 746 748 753 758 761 764 769 772 773 775 779 783 786 789 791 794 798 801 804 806 809 811 813 816 818 819 821 823 825 826 828 829 830 831 832 833 833 834 835 835 835 836 837 838 839 840 841 841 843 843 844 844 845 845 845 846 846 846 846 847 847 847 848
788 787 794 785 772 780 801 809 798 799 817 809 791 789 780 770 766 751 749 760 761 760 758 754 749 747 747 748 746 745 745 744 744 744 745 746 749 753 757 760 764 768 770 773 777 781 784 787 790 793 797 800 801 804 806 809 812 814 815 817 819 821 823 824 825 827 828 829 830 831 832 832 833 833 833 834 835 836 837 838 839 840 840 841 842 842 843 843 844 844 844 844 844 844 844 845 845
791 796 790 777 775 781 795 815 813 812 825 809 787 790 789 787 785 763 755 768 773 769 763 755 749 748 749 747 747 749 747 746 745 743 744 746 748 752 755 758 762 765 769 772 776 779 782 785 788 791 794 797 799 801 804 807 810 812 813 815 817 819 820 822 823 825 826 827 828 829 830 830 830 831 831 832 834 835 836 837 837 838 839 839 840 840 840 840 842 842 842 842 842 842 843 843 843
783 786 780 783 801 802 797 812 822 823 826 811 792 789 787 789 790 778 773 777 776 771 765 759 754 751 750 747 748 751 750 750 749 745 745 746 748 752 755 757 761 765 769 771 774 777 780 784 786 789 791 794 797 800 803 806 808 810 812 813 815 817 819 820 822 823 824 825 826 827 827 828 828 829 830 831 833 833 833 834 835 836 836 837 837 837 838 838 840 840 840 841 841 841 842 841 842
777 780 779 784 798 803 800 803 809 818 825 818 806 796 789 787 786 785 785 779 775 774 769 764 757 753 752 750 749 751 751 752 751 748 746 746 748 751 754 757 760 764 769 771 774 777 779 782 785 788 791 793 796 799 801 804 806 808 810 812 814 815 817 819 820 821 822 823 824 825 825 825 826 827 828 830 831 831 831 831 832 833 833 834 835 836 836 837 837 838 839 839 840 840 840 840 840
787 790 793 791 790 791 796 797 794 802 815 817 817 810 797 788 782 781 782 778 776 775 770 766 759 754 754 753 752 752 751 752 751 749 747 746 747 750 753 758 761 765 769 771 774 776 779 782 784 787 790 792 795 797 800 802 804 806 808 810 812 813 815 817 818 819 820 821 822 823 823 823 824 825 827 827 828 828 829 830 830 831 832 833 833 834 835 835 835 836 836 837 838 838 839 839 839
791 794 793 794 795 798 812 815 794 789 800 806 810 811 800 786 778 777 778 776 775 773 770 767 760 756 756 755 755 754 752 752 751 749 748 746 747 749 753 758 761 765 768 771 774 776 779 782 783 786 788 790 792 794 796 799 802 804 806 808 810 812 813 815 816 818 818 819 820 821 821 821 822 824 825 825 825 825 827 828 829 830 831 832 832 832 833 833 833 834 834 835 836 836 836 836 837